DW8353 Weather Reports


time (UTC)temp
F
wind
direction
speed
knots
gust
knots
rain 1hr
in
rain 24hr
in
rain mn
in
humidity
%
barometer
mb
20260506191536 57 219 0.9 7.0 0.00 0.00 0.00 96 1005.6
20260506190035 57 220 0.0 6.1 0.00 0.00 0.00 96 1005.9
20260506184534 57 199 0.0 9.6 0.00 0.00 0.00 96 1005.9
20260506183033 58 265 0.0 8.7 0.00 0.00 0.00 96 1005.9
20260506181535 58 179 0.0 0.0 0.00 0.00 0.00 96 1006.1
20260506180038 57 186 0.0 7.8 0.00 0.00 0.00 95 1005.9
20260506174534 59 190 0.0 5.2 0.00 0.00 0.00 95 1006.0
20260506173029 59 157 1.7 7.0 0.00 0.00 0.00 94 1006.1
20260506171531 59 167 0.0 1.7 0.00 0.00 0.00 93 1006.5
20260506170030 60 246 0.0 0.9 0.00 0.00 0.00 90 1007.0
20260506164526 61 225 0.0 7.0 0.00 0.00 0.00 87 1007.3
20260506163023 63 223 0.0 3.5 0.00 0.00 0.00 84 1007.3
20260506161523 63 269 0.0 6.1 0.00 0.00 0.00 82 1007.1
20260506160023 64 236 1.7 6.1 0.00 0.00 0.00 80 1007.2
20260506154520 65 263 0.0 7.8 0.00 0.00 0.00 80 1007.3
20260506153015 64 298 0.0 5.2 0.00 0.00 0.00 81 1007.6
20260506151528 64 240 0.0 7.8 0.00 0.00 0.00 82 1007.6
20260506150015 64 192 0.9 6.1 0.00 0.00 0.00 82 1007.7
20260506144513 64 206 0.0 7.0 0.00 0.00 0.00 82 1007.7
20260506143012 63 247 0.0 7.8 0.00 0.00 0.00 82 1007.9
20260506141511 63 260 0.0 8.7 0.00 0.00 0.00 83 1007.9
20260506140013 63 275 0.0 11.3 0.00 0.00 0.00 84 1007.8
20260506134506 61 262 0.9 7.8 0.00 0.00 0.00 86 1007.7
20260506133004 60 263 0.9 7.8 0.00 0.00 0.00 87 1007.6
20260506131508 61 201 0.0 2.6 0.00 0.00 0.00 88 1007.6
20260506130101 59 282 0.0 3.5 0.00 0.00 0.00 89 1007.9
20260506124558 58 209 0.0 4.3 0.00 0.00 0.00 90 1008.0
20260506123056 58 299 0.0 1.7 0.00 0.00 0.00 90 1008.3
20260506121554 58 252 0.0 0.0 0.00 0.00 0.00 91 1008.4
20260506120054 58 205 0.0 1.7 0.00 0.00 0.00 92 1008.3
20260506114600 57 258 0.0 4.3 0.00 0.00 0.00 92 1008.2
20260506113058 57 200 0.0 3.5 0.00 0.00 0.00 92 1008.2
20260506111555 56 244 0.0 7.0 0.00 0.00 0.00 92 1008.3
20260506110051 56 223 0.0 0.0 0.00 0.00 0.00 93 1008.2
20260506104556 55 226 0.0 0.0 0.00 0.00 0.00 94 1008.5
20260506103053 54 219 0.0 0.0 0.00 0.00 0.00 94 1008.3
20260506101550 54 211 0.0 0.0 0.00 0.00 0.00 94 1008.3
20260506100043 54 180 0.0 0.0 0.00 0.00 0.00 93 1008.1
20260506094541 54 187 0.0 0.0 0.00 0.00 0.00 93 1008.1
20260506093038 54 216 0.0 0.0 0.00 0.00 0.00 92 1008.0
20260506091537 54 208 0.0 0.0 0.00 0.00 0.00 92 1008.1
20260506090036 54 188 0.0 2.6 0.00 0.00 0.00 91 1008.1
20260506084540 55 238 0.0 0.9 0.00 0.00 0.00 91 1008.2
20260506083033 55 218 0.0 0.9 0.00 0.00 0.00 90 1008.2
20260506081530 55 189 0.0 0.0 0.00 0.00 0.00 89 1008.3
20260506073126 56 205 0.0 0.0 0.00 0.00 0.00 88 1008.3
20260506071524 56 254 0.0 3.5 0.00 0.00 0.00 87 1008.3
20260506061516 57 257 0.0 4.3 0.00 0.00 0.00 83 1008.3
20260506044503 60 192 0.0 4.3 0.00 0.00 0.00 78 1008.8
20260506043100 60 219 0.0 0.9 0.00 0.00 0.00 77 1008.9
20260506041559 60 211 0.0 7.8 0.00 0.00 0.00 77 1008.9
20260506040057 60 5 0.0 0.9 0.00 0.00 0.00 76 1008.8
20260506034557 61 266 0.0 7.0 0.00 0.00 0.00 75 1008.8
20260506033055 61 219 0.0 7.0 0.00 0.00 0.00 75 1009.0
20260506031556 61 217 0.0 1.7 0.00 0.00 0.00 75 1008.8
20260506030058 61 252 0.0 0.0 0.00 0.00 0.00 74 1008.9
20260506024559 61 230 0.0 1.7 0.00 0.00 0.00 73 1008.8
20260506023059 62 215 0.0 0.0 0.00 0.00 0.00 72 1008.8
20260506021606 62 188 0.0 0.0 0.00 0.00 0.00 72 1008.7
20260506020053 62 235 0.0 0.0 0.00 0.00 0.00 72 1008.7
20260506014554 62 213 0.0 0.0 0.00 0.00 0.00 71 1008.7
20260506013054 62 257 0.0 0.0 0.00 0.00 0.00 71 1008.4
20260506011553 62 248 0.0 6.1 0.00 0.00 0.00 71 1008.3
20260506010107 63 218 0.0 0.0 0.00 0.00 0.00 70 1008.1
20260506004553 63 207 0.0 6.1 0.00 0.00 0.00 69 1008.0
20260506003053 64 239 0.0 5.2 0.00 0.00 0.00 69 1007.8
20260506001550 64 228 0.0 0.9 0.00 0.00 0.00 68 1007.6
20260506000050 65 246 0.0 7.0 0.00 0.00 0.00 66 1007.3
20260505234605 65 231 0.0 3.5 0.00 0.00 0.00 66 1007.2
20260505233048 66 215 0.9 5.2 0.00 0.00 0.00 65 1007.0
20260505231549 67 199 0.0 6.1 0.00 0.00 0.00 64 1006.9
20260505230047 68 211 0.0 11.3 0.00 0.00 0.00 62 1006.7
20260505224547 69 227 0.0 7.0 0.00 0.00 0.00 60 1006.6
20260505223046 71 183 0.9 12.2 0.00 0.00 0.00 58 1006.3
20260505221546 72 178 0.0 7.8 0.00 0.00 0.00 58 1006.0
20260505220048 72 237 1.7 10.4 0.00 0.00 0.00 56 1006.2
20260505214602 72 319 0.0 8.7 0.00 0.00 0.00 55 1006.4
20260505213056 73 219 0.0 9.6 0.00 0.00 0.00 54 1006.3
20260505211541 73 171 0.9 7.0 0.00 0.00 0.00 56 1006.2
20260505210040 73 185 1.7 12.2 0.00 0.00 0.00 54 1006.1
20260505204550 74 192 2.6 10.4 0.00 0.00 0.00 52 1006.2
20260505203046 75 273 2.6 11.3 0.00 0.00 0.00 51 1005.9
20260505201538 76 196 4.3 9.6 0.00 0.00 0.00 50 1006.1
20260505200039 76 236 3.5 10.4 0.00 0.00 0.00 51 1006.2
20260505194544 78 248 2.6 13.9 0.00 0.00 0.00 50 1006.2
20260505193036 77 173 1.7 14.8 0.00 0.00 0.00 48 1006.2